Location: Camerons Lookout
(40.9833°S, 175.9333°E)
Time: 18:56:08
(UTC+00:00)

USA 59 Rocket - Pass Details

Date: 14 January 2026
Orbit: 369 x 1671 km, 63.3° (Epoch: 18 February)

Event Time Altitude Azimuth Distance (km) Brightness Sun altitude
Exits shadow 10:17:27 26° 62° (ENE) 2,548 2.7 -21.0°
Maximum altitude 10:18:56 28° 76° (ENE) 2,550 2.8 -21.2°
Drops below altitude 10° 10:26:46 10° 128° (SE) 3,905 4.2 -21.9°
Sets 10:30:37 0° 138° (SE) 4,946 4.9 -22.3°
